Change the Weather History Date:

Friday, February 21, 2014

  Actual Average Record
Temperature  
Mean Temperature 64 °F 47 °F  
Max Temperature 71 °F 54 °F 75 °F (1989)
Min Temperature 57 °F 41 °F 12 °F (2015)
Degree Days  
Heating Degree Days 1 18  
Month to date heating degree days 371 391  
Since 1 July heating degree days 1716 1804  
Cooling Degree Days 0 0  
Month to date cooling degree days 0 0  
Year to date cooling degree days 0 0  
Growing Degree Days 14 (Base 50)    
Moisture  
Dew Point 62 °F    
Average Humidity 92    
Maximum Humidity 100    
Minimum Humidity 84    
Precipitation  
Precipitation 0.72 in 0.14 in 0.72 in (2014)
Month to date precipitation 4.62 3.02  
Year to date precipitation 9.96 8.26  
Snow  
Snow 0.00 in - - ()
Month to date snowfall 5.5  
Since 1 July snowfall 5.5  
Snow Depth 0.00 in    
Sea Level Pressure  
Sea Level Pressure 29.98 in    
Wind  
Wind Speed 13 mph (SW)    
Max Wind Speed 31 mph    
Max Gust Speed 46 mph    
Visibility 5 miles    
Events Fog , Rain    
T = Trace of Precipitation, MM = Missing Value Source: NWS Daily Summary

Daily Weather History Graph

Daily Weather History Graph

Search for Another Location

Airport or City:

Trip Planner

Search our weather history database for the weather conditions in past years. The results will help you decide how hot, cold, wet, or windy it might be!

Date:

Astronomy

Feb. 21, 2014 Rise Set
Actual Time 6:41 AM EST 5:50 PM EST
Civil Twilight 6:16 AM EST 6:16 PM EST
Nautical Twilight 5:46 AM EST 6:46 PM EST
Astronomical Twilight 5:17 AM EST 7:15 PM EST
Moon No Moon Rise 10:19 AM EST (2/21)
Length of Visible Light 12h 00m
Length of Day
11h 08m
Waning Gibbous, 61% of the Moon is Illuminated
Feb 21
Waning Gibbous
Feb 22
Last Quarter
Mar 1
New
Mar 8
First Quarter
Mar 16
Full

Hourly Weather History & Observations

Time (EST) Temp. Dew Point Humidity Pressure Visibility Wind Dir Wind Speed Gust Speed Precip Events Conditions
12:51 AM 63.0 °F 61.0 °F 93% 30.10 in 8.0 mi SW 10.4 mph - N/A   Mostly Cloudy
1:51 AM 63.0 °F 62.1 °F 97% 30.08 in 6.0 mi SSW 9.2 mph - N/A   Mostly Cloudy
2:51 AM 63.0 °F 62.1 °F 97% 30.05 in 7.0 mi SSW 12.7 mph 19.6 mph N/A   Clear
3:51 AM 64.0 °F 62.1 °F 93% 30.04 in 7.0 mi SSW 12.7 mph - N/A   Scattered Clouds
4:51 AM 64.0 °F 62.1 °F 93% 30.05 in 7.0 mi SW 13.8 mph - N/A   Partly Cloudy
5:51 AM 63.0 °F 61.0 °F 93% 30.05 in 6.0 mi SW 10.4 mph - N/A   Mostly Cloudy
6:51 AM 63.0 °F 62.1 °F 97% 30.04 in 4.0 mi SSW 9.2 mph - N/A   Overcast
7:02 AM 63.0 °F 62.1 °F 97% 30.04 in 4.0 mi SSW 9.2 mph - N/A   Overcast
7:35 AM 64.0 °F 63.0 °F 96% 30.04 in 5.0 mi SSW 10.4 mph - N/A   Overcast
7:51 AM 64.9 °F 63.0 °F 93% 30.05 in 5.0 mi SSW 10.4 mph - N/A   Mostly Cloudy
8:51 AM 66.0 °F 63.0 °F 90% 30.04 in 5.0 mi SSW 13.8 mph - N/A   Partly Cloudy
9:51 AM 68.0 °F 64.0 °F 87% 30.02 in 5.0 mi SSW 15.0 mph 21.9 mph N/A   Clear
10:51 AM 69.1 °F 64.0 °F 84% 30.01 in 6.0 mi SSW 13.8 mph 23.0 mph N/A   Haze
11:51 AM 70.0 °F 64.0 °F 81% 29.97 in 7.0 mi SSW 19.6 mph 26.5 mph N/A   Clear
12:51 PM 70.0 °F 64.0 °F 81% 29.94 in 7.0 mi SSW 13.8 mph 26.5 mph N/A   Clear
1:09 PM 70.0 °F 64.0 °F 81% 29.93 in 6.0 mi SSW 17.3 mph 26.5 mph N/A   Haze
1:18 PM 70.0 °F 64.9 °F 84% 29.92 in 6.0 mi SSW 15.0 mph 26.5 mph N/A   Haze
1:51 PM 69.1 °F 64.0 °F 84% 29.91 in 7.0 mi SSW 19.6 mph 28.8 mph N/A   Partly Cloudy
2:51 PM 69.1 °F 64.9 °F 87% 29.91 in 6.0 mi SSW 18.4 mph - N/A   Overcast
3:51 PM 68.0 °F 64.9 °F 90% 29.90 in 5.0 mi SSW 19.6 mph 27.6 mph N/A   Partly Cloudy
4:51 PM 66.9 °F 64.9 °F 93% 29.91 in 1.8 mi SW 17.3 mph 28.8 mph 0.04 in Rain Heavy Rain
5:08 PM 62.1 °F 61.0 °F 96% 29.93 in 1.0 mi WSW 21.9 mph 31.1 mph 0.21 in Rain Rain
5:22 PM 64.0 °F 63.0 °F 96% 29.91 in 0.2 mi WSW 23.0 mph 40.3 mph 0.67 in Fog , Rain Light Rain
5:26 PM 64.9 °F 64.0 °F 97% 29.91 in 1.2 mi WSW 20.7 mph 32.2 mph 0.68 in Rain Light Rain
5:28 PM 64.9 °F 64.0 °F 97% 29.91 in 3.0 mi WSW 21.9 mph 32.2 mph 0.68 in Rain Light Rain
5:36 PM 63.0 °F 63.0 °F 100% 29.91 in 4.0 mi WSW 13.8 mph 27.6 mph 0.68 in   Mostly Cloudy
5:51 PM 64.0 °F 63.0 °F 96% 29.91 in 4.0 mi WSW 17.3 mph 26.5 mph 0.68 in Rain Light Rain
6:51 PM 63.0 °F 62.1 °F 97% 29.93 in 4.0 mi West 11.5 mph 19.6 mph 0.00 in   Overcast
7:21 PM 62.1 °F 61.0 °F 96% 29.94 in 2.5 mi WSW 8.1 mph - 0.00 in   Overcast
7:29 PM 61.0 °F 60.1 °F 97% 29.94 in 3.0 mi WSW 8.1 mph - 0.00 in   Mostly Cloudy
7:51 PM 62.1 °F 61.0 °F 96% 29.95 in 4.0 mi SW 9.2 mph - 0.00 in   Mostly Cloudy
8:51 PM 62.1 °F 61.0 °F 96% 29.95 in 5.0 mi WSW 11.5 mph - N/A   Mostly Cloudy
9:51 PM 61.0 °F 60.1 °F 97% 29.96 in 4.0 mi WSW 10.4 mph - N/A   Clear
10:02 PM 61.0 °F 60.1 °F 97% 29.96 in 3.0 mi WSW 8.1 mph - N/A   Scattered Clouds
10:21 PM 60.1 °F 60.1 °F 100% 29.97 in 2.5 mi WSW 6.9 mph - N/A   Mostly Cloudy
10:37 PM 60.1 °F 59.0 °F 96% 29.97 in 3.0 mi WSW 8.1 mph - N/A   Scattered Clouds
10:51 PM 60.1 °F 59.0 °F 96% 29.98 in 3.0 mi WSW 8.1 mph - N/A   Partly Cloudy
11:43 PM 59.0 °F 59.0 °F 100% 30.00 in 5.0 mi West 6.9 mph - N/A   Mostly Cloudy
11:51 PM 57.9 °F 57.9 °F 100% 30.00 in 6.0 mi West 6.9 mph - N/A   Scattered Clouds